NOZ1972 EGKK-ENVA

Flight info

Callsign NOZ1972
Flight time N/A
Altitude 39000
Route FRANE M604 GIVPO DCT LARGA DCT TINAC DCT KARLI DCT ROPNO DCT NELSU
Aircraft B38M/M-SDE1FGHILORVWXY/HB1

Departure

Time 2026-04-19 09:54
Airport London Gatwick Airport (EGKK)

Arrival

Time N/A
Airport Trondheim Airport, Værnes (ENVA)
Time Latitude Longitude Altitude Speed Heading
2026-04-19 09:54 51.21118 -0.14379 4081 ft 265 kts 75°
2026-04-19 09:54 51.21498 -0.11506 4749 ft 266 kts 76°
2026-04-19 09:55 51.21879 -0.08611 4944 ft 267 kts 75°
2026-04-19 09:55 51.22259 -0.05712 4982 ft 267 kts 75°
2026-04-19 09:55 51.22638 -0.02807 5013 ft 268 kts 76°
2026-04-19 09:55 51.23015 0.00109 4966 ft 267 kts 76°
2026-04-19 09:56 51.23389 0.03006 4958 ft 267 kts 76°
2026-04-19 09:56 51.23765 0.05911 4991 ft 268 kts 76°
2026-04-19 09:56 51.24143 0.08821 4958 ft 267 kts 76°
2026-04-19 09:56 51.24517 0.11731 4952 ft 267 kts 76°
2026-04-19 09:57 51.24889 0.14632 4968 ft 268 kts 76°
2026-04-19 09:57 51.25263 0.17547 4940 ft 267 kts 76°
2026-04-19 09:57 51.25491 0.20484 4936 ft 269 kts 91°
2026-04-19 09:57 51.25284 0.23474 4960 ft 271 kts 94°
2026-04-19 09:58 51.25081 0.26460 4960 ft 271 kts 94°
2026-04-19 09:58 51.24885 0.29455 4962 ft 271 kts 94°
2026-04-19 09:58 51.24683 0.32450 4925 ft 271 kts 94°
2026-04-19 09:58 51.24481 0.35442 4931 ft 271 kts 94°
2026-04-19 09:59 51.24280 0.38443 4964 ft 272 kts 94°
2026-04-19 09:59 51.24078 0.41438 4948 ft 271 kts 94°
2026-04-19 09:59 51.23876 0.44426 4942 ft 271 kts 93°
2026-04-19 09:59 51.23674 0.47426 4935 ft 272 kts 94°
2026-04-19 10:00 51.23470 0.50420 4951 ft 271 kts 94°
2026-04-19 10:00 51.23329 0.53423 4934 ft 270 kts 84°
2026-04-19 10:00 51.23763 0.56273 4919 ft 262 kts 60°
2026-04-19 10:00 51.24859 0.58541 4940 ft 258 kts 38°
2026-04-19 10:01 51.26381 0.59968 4977 ft 254 kts 17°
2026-04-19 10:01 51.28109 0.60436 4960 ft 252 kts 356°
2026-04-19 10:01 51.29836 0.59996 4981 ft 254 kts 349°
2026-04-19 10:01 51.31599 0.60184 5514 ft 259 kts 14°
2026-04-19 10:02 51.33353 0.60895 5682 ft 258 kts 11°
2026-04-19 10:02 51.35107 0.61522 5832 ft 258 kts 11°
2026-04-19 10:02 51.36834 0.62154 5943 ft 259 kts 11°
2026-04-19 10:02 51.38593 0.62806 6002 ft 262 kts 11°
2026-04-19 10:03 51.40374 0.63474 6705 ft 262 kts 11°
2026-04-19 10:03 51.42140 0.64141 7789 ft 262 kts 11°
2026-04-19 10:03 51.43933 0.64819 8712 ft 267 kts 11°
2026-04-19 10:03 51.45754 0.65509 9692 ft 271 kts 11°
2026-04-19 10:04 51.47602 0.66209 10583 ft 276 kts 10°
2026-04-19 10:04 51.49531 0.66941 11109 ft 294 kts 10°
2026-04-19 10:04 51.51601 0.67728 11515 ft 314 kts 11°
2026-04-19 10:04 51.53773 0.68554 12061 ft 327 kts 10°
2026-04-19 10:05 51.56013 0.69407 12881 ft 332 kts 10°
2026-04-19 10:05 51.58267 0.70264 13731 ft 336 kts 10°
2026-04-19 10:05 51.60564 0.71137 14520 ft 340 kts
2026-04-19 10:05 51.62883 0.72020 15274 ft 344 kts
2026-04-19 10:06 51.65228 0.72913 16027 ft 348 kts
2026-04-19 10:06 51.67569 0.73806 16770 ft 352 kts
2026-04-19 10:06 51.69963 0.74720 17502 ft 356 kts
2026-04-19 10:06 51.72392 0.75648 18215 ft 360 kts
2026-04-19 10:07 51.74848 0.76589 18875 ft 364 kts
2026-04-19 10:07 51.77323 0.77539 19489 ft 367 kts
2026-04-19 10:07 51.79819 0.78499 20098 ft 371 kts
2026-04-19 10:07 51.82258 0.79999 20712 ft 382 kts 26°
2026-04-19 10:08 51.84377 0.82647 21364 ft 390 kts 36°
2026-04-19 10:08 51.86455 0.85529 21888 ft 395 kts 37°
2026-04-19 10:08 51.88501 0.88524 22482 ft 398 kts 37°
2026-04-19 10:08 51.90571 0.91543 23049 ft 402 kts 37°
2026-04-19 10:09 51.92665 0.94593 23608 ft 405 kts 37°
2026-04-19 10:09 51.94769 0.97660 24117 ft 409 kts 37°
2026-04-19 10:09 51.96892 1.00757 24586 ft 412 kts 36°
2026-04-19 10:09 51.99031 1.03882 25061 ft 414 kts 36°
2026-04-19 10:10 52.01151 1.06982 25499 ft 417 kts 36°
2026-04-19 10:10 52.03311 1.10147 25963 ft 420 kts 36°
2026-04-19 10:10 52.05528 1.13251 26404 ft 419 kts 30°
2026-04-19 10:10 52.07865 1.16086 26832 ft 421 kts 31°
2026-04-19 10:11 52.10204 1.18987 27252 ft 424 kts 31°
2026-04-19 10:11 52.12529 1.22012 27678 ft 429 kts 33°
2026-04-19 10:11 52.14828 1.25132 28096 ft 431 kts 33°
2026-04-19 10:11 52.17139 1.28256 28496 ft 434 kts 33°
2026-04-19 10:12 52.19466 1.31401 28901 ft 436 kts 33°
2026-04-19 10:12 52.21024 1.33508 29162 ft 438 kts 33°
2026-04-19 10:12 52.24141 1.37728 29666 ft 441 kts 33°
2026-04-19 10:12 52.26508 1.40937 30043 ft 444 kts 33°
2026-04-19 10:13 52.28892 1.44174 30435 ft 446 kts 33°
2026-04-19 10:13 52.31284 1.47427 30742 ft 449 kts 33°
2026-04-19 10:13 52.33663 1.50754 31060 ft 454 kts 38°
2026-04-19 10:13 52.35135 1.53316 31286 ft 458 kts 42°
2026-04-19 10:14 52.37324 1.57096 31580 ft 459 kts 39°
2026-04-19 10:14 52.39529 1.60796 31836 ft 461 kts 39°
2026-04-19 10:14 52.41781 1.64557 32128 ft 463 kts 39°
2026-04-19 10:14 52.44036 1.68324 32478 ft 464 kts 39°
2026-04-19 10:15 52.46291 1.72093 32876 ft 463 kts 39°
2026-04-19 10:15 52.48549 1.75873 33264 ft 463 kts 39°
2026-04-19 10:15 52.50799 1.79645 33643 ft 462 kts 39°
2026-04-19 10:15 52.53051 1.83428 34053 ft 462 kts 40°
2026-04-19 10:16 52.55293 1.87195 34422 ft 461 kts 40°
2026-04-19 10:16 52.57525 1.90979 34716 ft 461 kts 40°
2026-04-19 10:16 52.59754 1.94781 35006 ft 461 kts 40°
2026-04-19 10:16 52.61980 1.98581 35302 ft 461 kts 40°
2026-04-19 10:17 52.64208 2.02389 35608 ft 461 kts 41°
2026-04-19 10:17 52.66436 2.06201 35861 ft 462 kts 41°
2026-04-19 10:17 52.68667 2.10024 36132 ft 462 kts 41°
2026-04-19 10:17 52.70889 2.13840 36402 ft 463 kts 41°
2026-04-19 10:18 52.73120 2.17675 36674 ft 463 kts 41°
2026-04-19 10:18 52.75350 2.21517 36936 ft 463 kts 41°
2026-04-19 10:18 52.77578 2.25359 37186 ft 463 kts 42°
2026-04-19 10:19 52.82025 2.33048 37693 ft 463 kts 42°
2026-04-19 10:19 52.84223 2.36856 37927 ft 463 kts 42°
2026-04-19 10:19 52.86445 2.40713 38146 ft 463 kts 42°
2026-04-19 10:19 52.88666 2.44575 38361 ft 464 kts 42°
2026-04-19 10:20 52.90887 2.48443 38579 ft 464 kts 42°
2026-04-19 10:20 52.93112 2.52324 38786 ft 464 kts 43°
2026-04-19 10:20 52.95331 2.56199 38982 ft 464 kts 43°
2026-04-19 10:20 52.97579 2.60053 39101 ft 463 kts 38°
2026-04-19 10:21 53.00166 2.63101 39221 ft 453 kts 23°
2026-04-19 10:21 53.03001 2.65386 39267 ft 454 kts 25°
2026-04-19 10:21 53.08619 2.70203 39285 ft 454 kts 24°
2026-04-19 10:22 53.14261 2.74923 39271 ft 453 kts 23°
2026-04-19 10:22 53.19907 2.79635 39272 ft 454 kts 23°
2026-04-19 10:23 53.25555 2.84361 39277 ft 454 kts 24°
2026-04-19 10:23 53.31252 2.88912 39273 ft 453 kts 22°
2026-04-19 10:24 53.36936 2.93348 39270 ft 453 kts 22°
2026-04-19 10:24 53.42645 2.97831 39271 ft 453 kts 22°
2026-04-19 10:25 53.48375 3.02345 39273 ft 457 kts 22°
2026-04-19 10:25 53.54163 3.06918 39272 ft 462 kts 22°
2026-04-19 10:26 53.59993 3.11539 39283 ft 463 kts 22°
2026-04-19 10:26 53.65826 3.16176 39279 ft 465 kts 22°
2026-04-19 10:27 53.71679 3.20846 39290 ft 465 kts 23°
2026-04-19 10:27 53.77493 3.25495 39280 ft 466 kts 23°
2026-04-19 10:28 53.83351 3.30195 39276 ft 466 kts 23°
2026-04-19 10:28 53.89204 3.34906 39276 ft 466 kts 23°
2026-04-19 10:29 53.95054 3.39630 39279 ft 466 kts 23°
2026-04-19 10:29 54.00908 3.44371 39266 ft 466 kts 23°
2026-04-19 10:30 54.06755 3.49121 39268 ft 466 kts 23°
2026-04-19 10:30 54.12604 3.53888 39268 ft 466 kts 23°
2026-04-19 10:31 54.18449 3.58667 39265 ft 466 kts 23°
2026-04-19 10:31 54.24292 3.63460 39258 ft 466 kts 24°
2026-04-19 10:32 54.30129 3.68262 39260 ft 466 kts 24°
2026-04-19 10:32 54.35978 3.73090 39260 ft 466 kts 24°